Time,TemperatureF,DewpointF,PressureIn,WindDirection,WindDirectionDegrees,WindSpeedMPH,WindSpeedGustMPH,Humidity,HourlyPrecipIn,Conditions,Clouds,dailyrainin,SoftwareType,DateUTC
2013-09-09 00:14:00,51.9,47.0,30.12,South,180,1.0,-999.0,82,-99.99,,,0.00,weatherlink.com 1.10,2013-09-09 06:14:00,
2013-09-09 00:29:00,51.2,47.0,30.12,South,176,0.0,-999.0,84,-99.99,,,0.00,weatherlink.com 1.10,2013-09-09 06:29:00,
2013-09-09 00:44:00,50.3,46.0,30.12,South,176,1.0,-999.0,84,-99.99,,,0.00,weatherlink.com 1.10,2013-09-09 06:44:00,
2013-09-09 00:59:00,50.0,46.0,30.12,South,175,0.0,-999.0,86,-99.99,,,0.00,weatherlink.com 1.10,2013-09-09 06:59:00,
2013-09-09 01:14:00,50.4,46.0,30.13,South,175,0.0,-999.0,85,-99.99,,,0.00,weatherlink.com 1.10,2013-09-09 07:14:00,
2013-09-09 01:29:00,50.7,46.0,30.12,South,175,2.0,-999.0,85,-99.99,,,0.00,weatherlink.com 1.10,2013-09-09 07:29:00,
2013-09-09 01:44:00,51.0,47.0,30.13,South,175,0.0,-999.0,85,-99.99,,,0.00,weatherlink.com 1.10,2013-09-09 07:44:00,
2013-09-09 01:59:00,51.1,47.0,30.14,South,175,0.0,-999.0,85,-99.99,,,0.00,weatherlink.com 1.10,2013-09-09 07:59:00,
2013-09-09 02:14:00,52.8,47.0,30.13,South,181,0.0,-999.0,81,-99.99,,,0.00,weatherlink.com 1.10,2013-09-09 08:14:00,
2013-09-09 02:29:00,53.3,47.0,30.14,NW,313,0.0,-999.0,78,-99.99,,,0.00,weatherlink.com 1.10,2013-09-09 08:29:00,
2013-09-09 02:44:00,50.8,46.0,30.14,NW,305,0.0,-999.0,82,-99.99,,,0.00,weatherlink.com 1.10,2013-09-09 08:44:00,
2013-09-09 02:59:00,49.3,45.0,30.14,WNW,284,0.0,-999.0,84,-99.99,,,0.00,weatherlink.com 1.10,2013-09-09 08:59:00,
2013-09-09 03:14:00,48.2,44.0,30.14,WNW,285,4.0,-999.0,86,-99.99,,,0.00,weatherlink.com 1.10,2013-09-09 09:14:00,
2013-09-09 03:29:00,47.6,44.0,30.14,WNW,303,2.0,-999.0,87,-99.99,,,0.00,weatherlink.com 1.10,2013-09-09 09:29:00,
2013-09-09 03:44:00,47.3,44.0,30.14,WNW,303,3.0,-999.0,88,-99.99,,,0.00,weatherlink.com 1.10,2013-09-09 09:44:00,
2013-09-09 03:59:00,47.3,44.0,30.13,WNW,303,2.0,-999.0,88,-99.99,,,0.00,weatherlink.com 1.10,2013-09-09 09:59:00,
2013-09-09 04:14:00,47.3,44.0,30.14,WNW,303,1.0,-999.0,88,-99.99,,,0.00,weatherlink.com 1.10,2013-09-09 10:14:00,
2013-09-09 04:29:00,46.6,44.0,30.15,WNW,303,0.0,-999.0,89,-99.99,,,0.00,weatherlink.com 1.10,2013-09-09 10:29:00,
2013-09-09 04:44:00,47.1,44.0,30.15,WNW,303,2.0,-999.0,89,-99.99,,,0.00,weatherlink.com 1.10,2013-09-09 10:44:00,
2013-09-09 04:59:00,47.7,44.0,30.14,WNW,303,0.0,-999.0,87,-99.99,,,0.00,weatherlink.com 1.10,2013-09-09 10:59:00,
2013-09-09 05:14:00,47.1,43.0,30.15,NW,306,0.0,-999.0,86,-99.99,,,0.00,weatherlink.com 1.10,2013-09-09 11:14:00,
2013-09-09 05:29:00,46.2,43.0,30.16,NW,306,0.0,-999.0,87,-99.99,,,0.00,weatherlink.com 1.10,2013-09-09 11:29:00,
2013-09-09 05:44:00,45.9,43.0,30.16,West,265,0.0,-999.0,88,-99.99,,,0.00,weatherlink.com 1.10,2013-09-09 11:44:00,
2013-09-09 05:59:00,46.1,43.0,30.16,West,263,0.0,-999.0,89,-99.99,,,0.00,weatherlink.com 1.10,2013-09-09 11:59:00,
2013-09-09 06:14:00,46.4,43.0,30.16,West,263,0.0,-999.0,88,-99.99,,,0.00,weatherlink.com 1.10,2013-09-09 12:14:00,
2013-09-09 06:29:00,45.9,43.0,30.16,WSW,257,0.0,-999.0,88,-99.99,,,0.00,weatherlink.com 1.10,2013-09-09 12:29:00,
2013-09-09 06:44:00,45.3,42.0,30.17,WSW,254,2.0,-999.0,89,-99.99,,,0.00,weatherlink.com 1.10,2013-09-09 12:44:00,
2013-09-09 06:59:00,45.8,43.0,30.17,WSW,253,0.0,-999.0,89,-99.99,,,0.00,weatherlink.com 1.10,2013-09-09 12:59:00,
2013-09-09 07:14:00,46.0,43.0,30.18,WSW,253,0.0,-999.0,88,-99.99,,,0.00,weatherlink.com 1.10,2013-09-09 13:14:00,
2013-09-09 07:30:00,45.6,42.0,30.19,WSW,253,1.0,-999.0,88,-99.99,,,0.00,weatherlink.com 1.10,2013-09-09 13:30:00,
2013-09-09 07:45:00,45.4,42.0,30.19,WSW,253,0.0,-999.0,89,-99.99,,,0.00,weatherlink.com 1.10,2013-09-09 13:45:00,
2013-09-09 08:00:00,46.1,43.0,30.19,WSW,253,2.0,-999.0,90,-99.99,,,0.00,weatherlink.com 1.10,2013-09-09 14:00:00,
2013-09-09 08:14:00,46.3,44.0,30.20,WSW,253,0.0,-999.0,90,-99.99,,,0.00,weatherlink.com 1.10,2013-09-09 14:14:00,
2013-09-09 08:30:00,47.3,45.0,30.20,WSW,253,0.0,-999.0,90,-99.99,,,0.00,weatherlink.com 1.10,2013-09-09 14:30:00,
2013-09-09 08:44:00,48.7,46.0,30.20,WSW,253,1.0,-999.0,89,-99.99,,,0.00,weatherlink.com 1.10,2013-09-09 14:44:00,
2013-09-09 08:59:00,51.4,47.0,30.20,WSW,253,0.0,-999.0,86,-99.99,,,0.00,weatherlink.com 1.10,2013-09-09 14:59:00,
2013-09-09 09:15:00,53.5,47.0,30.20,WSW,253,1.0,-999.0,79,-99.99,,,0.00,weatherlink.com 1.10,2013-09-09 15:15:00,
2013-09-09 09:29:00,54.8,48.0,30.20,West,266,1.0,-999.0,78,-99.99,,,0.00,weatherlink.com 1.10,2013-09-09 15:29:00,
2013-09-09 09:44:00,55.1,48.0,30.20,WNW,303,0.0,-999.0,76,-99.99,,,0.00,weatherlink.com 1.10,2013-09-09 15:44:00,
2013-09-09 10:00:00,56.0,48.0,30.20,NW,308,2.0,-999.0,74,-99.99,,,0.00,weatherlink.com 1.10,2013-09-09 16:00:00,
2013-09-09 10:15:00,56.9,48.0,30.20,NW,319,0.0,-999.0,72,-99.99,,,0.00,weatherlink.com 1.10,2013-09-09 16:15:00,
2013-09-09 10:29:00,57.6,49.0,30.20,NW,306,0.0,-999.0,72,-99.99,,,0.00,weatherlink.com 1.10,2013-09-09 16:29:00,
2013-09-09 10:45:00,58.6,48.0,30.21,NW,305,0.0,-999.0,69,-99.99,,,0.00,weatherlink.com 1.10,2013-09-09 16:45:00,
2013-09-09 18:33:00,-999.0,-99.9,0.00,North,-999,-999.0,-999.0,-999,-99.99,,,0.00,weatherlink.com 1.10,2013-09-10 00:33:00,
2013-09-09 18:48:00,66.6,46.0,30.17,NNW,338,2.0,-999.0,48,-99.99,,,0.00,weatherlink.com 1.10,2013-09-10 00:48:00,
2013-09-09 19:03:00,66.0,46.0,30.18,NNW,338,0.0,-999.0,49,-99.99,,,0.00,weatherlink.com 1.10,2013-09-10 01:03:00,
2013-09-09 19:18:00,65.0,47.0,30.18,NNW,338,0.0,-999.0,52,-99.99,,,0.00,weatherlink.com 1.10,2013-09-10 01:18:00,
2013-09-09 19:33:00,63.0,46.0,30.18,NNW,338,0.0,-999.0,55,-99.99,,,0.00,weatherlink.com 1.10,2013-09-10 01:33:00,
2013-09-09 19:48:00,61.1,46.0,30.18,NNW,338,0.0,-999.0,58,-99.99,,,0.00,weatherlink.com 1.10,2013-09-10 01:48:00,
2013-09-09 20:03:00,59.1,46.0,30.19,NNW,338,0.0,-999.0,62,-99.99,,,0.00,weatherlink.com 1.10,2013-09-10 02:03:00,
2013-09-09 20:18:00,57.2,46.0,30.20,NNW,338,0.0,-999.0,67,-99.99,,,0.00,weatherlink.com 1.10,2013-09-10 02:18:00,
2013-09-09 20:33:00,55.1,45.0,30.20,NNW,338,1.0,-999.0,69,-99.99,,,0.00,weatherlink.com 1.10,2013-09-10 02:33:00,
2013-09-09 20:48:00,52.2,45.0,30.21,NNW,341,2.0,-999.0,76,-99.99,,,0.00,weatherlink.com 1.10,2013-09-10 02:48:00,
2013-09-09 21:03:00,51.1,44.0,30.21,NNW,342,2.0,-999.0,77,-99.99,,,0.00,weatherlink.com 1.10,2013-09-10 03:03:00,
2013-09-09 21:18:00,50.5,44.0,30.21,NNW,341,2.0,-999.0,77,-99.99,,,0.00,weatherlink.com 1.10,2013-09-10 03:18:00,
2013-09-09 21:33:00,49.2,44.0,30.22,NNW,341,0.0,-999.0,81,-99.99,,,0.00,weatherlink.com 1.10,2013-09-10 03:33:00,
2013-09-09 21:48:00,48.8,44.0,30.23,NNW,341,0.0,-999.0,83,-99.99,,,0.00,weatherlink.com 1.10,2013-09-10 03:48:00,
2013-09-09 22:03:00,48.3,43.0,30.23,NNW,341,0.0,-999.0,83,-99.99,,,0.00,weatherlink.com 1.10,2013-09-10 04:03:00,
2013-09-09 22:18:00,47.6,43.0,30.24,NNW,342,2.0,-999.0,83,-99.99,,,0.00,weatherlink.com 1.10,2013-09-10 04:18:00,
2013-09-09 22:33:00,47.1,42.0,30.23,NNW,342,2.0,-999.0,83,-99.99,,,0.00,weatherlink.com 1.10,2013-09-10 04:33:00,
2013-09-09 22:48:00,46.9,42.0,30.24,NNW,342,0.0,-999.0,82,-99.99,,,0.00,weatherlink.com 1.10,2013-09-10 04:48:00,
2013-09-09 23:03:00,46.7,42.0,30.24,NNW,342,0.0,-999.0,83,-99.99,,,0.00,weatherlink.com 1.10,2013-09-10 05:03:00,
2013-09-09 23:18:00,46.1,42.0,30.25,NNW,342,0.0,-999.0,85,-99.99,,,0.00,weatherlink.com 1.10,2013-09-10 05:18:00,
2013-09-09 23:33:00,45.5,41.0,30.25,NNW,342,0.0,-999.0,85,-99.99,,,0.00,weatherlink.com 1.10,2013-09-10 05:33:00,
2013-09-09 23:48:00,45.4,41.0,30.24,NNW,342,0.0,-999.0,85,-99.99,,,0.00,weatherlink.com 1.10,2013-09-10 05:48:00,